GMFK Airport Information

Runway Information
Runway 13 Length 10499 ft width 148 ft
Elevation 3428 ft Threshold 0 ft Heading 125
Runway 31 Length 10499 ft Width 148 ft
Elevation 3363 ft Threshold 0 ft Heading 305
Airport Frequencies
Type TWR Name ERRACHIDIA Frequency 122.7 MHZ
Airport Navaids
Type VOR-DME Name Errachidia Frequency 117100 KHZ
Type NDB Name Errachidia Frequency 293 KHZ
Airport Weather Information & NOTAM
ADDS - METARS form results

(1023 UTC 22 February 2019)
Data provider http://aviationweather.gov/metar/data/
 
METAR text: GMFK 221000Z 00000KT CAVOK 16/M07 Q1033 NOSIG
Conditions at: GMFK (ER-RACHIDIA (RMA, MA) observed 1000 UTC 22 February 2019
Temperature: 16.0°C (61°F)
Dewpoint: -7.0°C (19°F) [RH = 20%]
Pressure (altimeter): 30.50 inches Hg (1033.0 mb)
Winds: calm
Visibility: 6 or more miles (10+ km)
Ceiling: ceiling and visibility are OK
Clouds: unknown
Weather: no significant weather observed at this time